Location: Unspecified
(0.0000°N, 0.0000°E)
Time: 00:51:04
(UTC+00:00)

Amateur Radio Satellites - All Passes

Search period start: 25 April 2017 00:21
Search period end: 26 April 2017 00:21
Location: Unspecified, 0.0000°N, 0.0000°E

Satellite Date Start Highest point End Downlink Frequencies (MHz)
Time Altitude Azimuth
SRMSAT 25 Apr 00:30:01 00:33:46 17° 14° (NNE) 00:37:29 437.500
Gurwin Techsat 1B 25 Apr 00:34:43 00:37:49 16° 103° (ESE) 00:40:55 435.225
DX 1 25 Apr 00:35:04 00:39:27 80° 77° (ENE) 00:43:48 434.975-435.025
50 SAT 25 Apr 00:43:06 00:46:10 30° 259° (WSW) 00:49:14 437.505
Oscar 19 25 Apr 00:49:59 00:54:59 50° 102° (ESE) 00:59:59 437.125/150
PCSat 25 Apr 00:51:35 00:56:59 83° 109° (ESE) 01:02:23 145.827
SPROUT 25 Apr 00:57:45 01:00:14 15° 258° (WSW) 01:02:43 437.525
JUGNU 25 Apr 00:59:51 01:05:51 81° 22° (NNE) 01:11:51 437.505
BUGSAT 1 25 Apr 01:17:11 01:18:57 13° 282° (WNW) 01:20:43 437.445
BEESAT 2 25 Apr 01:40:06 01:42:58 19° 248° (WSW) 01:45:50 435.950
BEESAT 25 Apr 01:44:10 01:47:10 17° 77° (ENE) 01:50:08 436.000
UKube-1 25 Apr 01:44:20 01:47:10 17° 258° (WSW) 01:50:00 .
ITAMSAT 1 25 Apr 02:11:52 02:15:42 21° 103° (ESE) 02:19:33 435.822/435.867
Gurwin Techsat 1B 25 Apr 02:12:46 02:17:28 33° 283° (WNW) 02:22:11 435.225
SRMSAT 25 Apr 02:17:53 02:23:23 38° 20° (NNE) 02:28:51 437.500
ITUPSAT 1 25 Apr 02:21:32 02:26:11 52° 77° (ENE) 02:30:47 437.325
AO-7 25 Apr 02:38:09 02:45:58 45° 106° (ESE) 02:53:47 .
JUGNU 25 Apr 02:49:29 02:54:57 37° 200° (SSW) 03:00:24 437.505
BEESAT 25 Apr 03:20:48 03:24:39 25° 257° (WSW) 03:28:31 436.000
MOZHAYETS 4 25 Apr 03:33:23 03:37:40 40° 258° (WSW) 03:41:55
YUBILEINY 25 Apr 03:46:29 03:55:16 88° 91° (E) 04:03:57 435.215
ITAMSAT 1 25 Apr 03:50:50 03:54:53 24° 283° (WNW) 03:58:58 435.822/435.867
KKS-1 25 Apr 04:01:23 04:05:44 51° 78° (ENE) 04:10:05 437.445
SRMSAT 25 Apr 04:06:41 04:12:37 78° 201° (SSW) 04:18:32 437.500
CUBESAT XI-V 25 Apr 04:18:06 04:22:42 81° 77° (ENE) 04:27:18 437.345
AO-7 25 Apr 04:32:02 04:38:20 24° 287° (WNW) 04:44:43 .
STARS 25 Apr 04:39:13 04:43:36 59° 78° (ENE) 04:47:57 437.465
SO-50 25 Apr 04:40:39 04:45:20 65° 112° (ESE) 04:49:57 436.795
JUGNU 25 Apr 04:40:48 04:44:26 16° 194° (SSW) 04:48:03 437.505
NO-84 25 Apr 04:48:56 04:51:31 27° 59° (ENE) 04:54:16 435.350 FM
XW-2D 25 Apr 04:55:34 04:56:51 11° 102° (ESE) 04:58:10 145.860 - 145.880
XW-2B 25 Apr 05:01:41 05:03:44 14° 102° (ESE) 05:05:46 145.730 - 145.750
LilacSat-2 25 Apr 05:09:17 05:12:10 20° 102° (ESE) 05:15:05 437.200
RS-15 25 Apr 05:12:08 05:23:10 54° 110° (ESE) 05:34:41 29.354- 29.394
XW-2C 25 Apr 05:12:33 05:15:30 21° 102° (ESE) 05:18:28 145.795 - 145.815
KAITUO 1B 25 Apr 05:15:52 05:18:26 18° 102° (ESE) 05:21:02 145.475/437.950
Tancredo 1 25 Apr 05:34:32 05:37:38 72° 125° (SE) 05:40:43 437.200
XW-2F 25 Apr 05:38:51 05:42:35 55° 101° (E) 05:46:21 145.980 - 146.000
ISS 25 Apr 05:40:04 05:43:17 55° 126° (SE) 05:46:29 437.550
NUDT-PHONESAT 25 Apr 05:56:45 06:00:29 85° 103° (ESE) 06:04:15 437.300
SRMSAT 25 Apr 05:56:50 06:01:55 29° 198° (SSW) 06:07:00 437.500
HO-68 25 Apr 05:57:50 06:02:05 17° 105° (ESE) 06:06:20 435.675
DOVE 4 25 Apr 06:04:50 06:08:39 32° 282° (WNW) 06:12:24 437.250
CUTE-I 25 Apr 06:21:47 06:26:54 51° 282° (WNW) 06:32:03 437.470
M-CUBED/EXP-1 PRIME 25 Apr 06:25:24 06:28:59 27° 73° (ENE) 06:32:44 437.505
XW-2D 25 Apr 06:27:50 06:30:46 21° 281° (W) 06:33:43 145.860 - 145.880
XW-2B 25 Apr 06:35:03 06:37:38 17° 281° (W) 06:40:14 145.730 - 145.750
XW-2A 25 Apr 06:39:43 06:42:42 30° 101° (ESE) 06:45:42 145.665 - 145.685
CUTE 1.7 + AOD 2 25 Apr 06:42:34 06:46:28 34° 102° (ESE) 06:50:22 437.475
LilacSat-2 25 Apr 06:44:36 06:46:11 12° 281° (W) 06:47:45 437.200
XW-2C 25 Apr 06:48:13 06:49:26 11° 281° (W) 06:50:39 145.795 - 145.815
KAITUO 1B 25 Apr 06:50:16 06:52:11 14° 281° (W) 06:54:07 145.475/437.950
SEEDS 25 Apr 07:06:23 07:10:25 43° 101° (ESE) 07:14:27 437.485
STRAND 1 25 Apr 07:17:47 07:22:52 64° 257° (WSW) 07:27:55 437.568
UWE-3 25 Apr 07:18:20 07:21:38 22° 102° (ESE) 07:25:02 435.000/436.395/437.385
RS-15 25 Apr 07:26:03 07:35:16 28° 293° (WNW) 07:44:53 29.354- 29.394
CUBEBUG 2 25 Apr 07:26:15 07:30:24 55° 102° (ESE) 07:34:43 437.445
HO-68 25 Apr 07:42:31 07:49:26 52° 284° (WNW) 07:56:24 435.675
SRMSAT 25 Apr 07:48:44 07:51:41 14° 191° (S) 07:54:39 437.500
M-CUBED/EXP-1 PRIME 25 Apr 08:01:06 08:03:12 13° 256° (WSW) 08:05:20 437.505
ZACube-1 25 Apr 08:17:20 08:21:39 77° 102° (ESE) 08:26:06 437.345
AAUSAT CUBESAT 2 25 Apr 08:20:29 08:24:17 36° 282° (WNW) 08:28:08 437.432
JUGNU 25 Apr 08:23:05 08:24:38 11° 173° (S) 08:26:12 437.505
AO-73 25 Apr 08:25:24 08:29:43 88° 91° (E) 08:34:11 145.935
Oscar 11 25 Apr 08:43:39 08:47:57 64° 281° (WNW) 08:52:16 .
FO-29 25 Apr 08:46:56 08:51:11 17° 79° (E) 08:55:11 435.910
UWE-3 25 Apr 08:55:18 08:57:50 15° 281° (W) 09:00:26 435.000/436.395/437.385
UNISAT 6 25 Apr 08:58:03 09:01:20 20° 79° (E) 09:04:34 437.425
OBJECT BX 25 Apr 08:58:17 09:01:19 25° 101° (ESE) 09:04:22 145.990 - 145.960
PRISM 25 Apr 09:00:18 09:04:07 37° 78° (ENE) 09:07:55 437.425
O/OREOS (USA 219) 25 Apr 09:14:21 09:18:51 68° 284° (WNW) 09:23:23 437.305
DELFI C3 25 Apr 09:21:50 09:25:48 86° 281° (WNW) 09:29:47 145.870
LO-87 25 Apr 10:08:40 10:11:27 22° 101° (ESE) 10:14:16 145.935 - 145.965
JUGNU 25 Apr 10:10:10 10:14:28 21° 164° (SSE) 10:18:46 437.505
TIGRISAT 25 Apr 10:12:54 10:17:11 39° 258° (WSW) 10:21:21 435.000
AO-85 25 Apr 10:21:02 10:25:23 31° 113° (ESE) 10:29:26 145.980
FO-29 25 Apr 10:28:56 10:36:05 51° 256° (WSW) 10:42:31 435.910
EO-79 25 Apr 10:31:39 10:33:28 12° 78° (ENE) 10:35:16 145.935-145.965
UNISAT 6 25 Apr 10:34:35 10:37:46 19° 257° (WSW) 10:40:55 437.425
DUCHIFAT 1 25 Apr 10:36:37 10:37:44 11° 78° (ENE) 10:38:52 145.980
AIST 2D 25 Apr 10:48:12 10:51:37 52° 79° (E) 10:54:59 435.315
POLYITAN 1 25 Apr 11:08:02 11:12:07 45° 78° (ENE) 11:16:09 437.675
QB50P2 25 Apr 11:14:22 11:18:36 63° 79° (E) 11:22:47 145.880/145.840
ESTCUBE 1 25 Apr 11:25:48 11:30:12 53° 282° (WNW) 11:34:37 437.505/2401.250
SPROUT 25 Apr 11:28:01 11:31:34 26° 102° (ESE) 11:35:08 437.525
SRMSAT 25 Apr 11:29:42 11:32:18 13° 170° (S) 11:34:55 437.500
NANOSAT C BR1 25 Apr 11:38:08 11:42:23 71° 258° (WSW) 11:46:34 145.865
BUGSAT 1 25 Apr 11:43:28 11:46:58 25° 78° (ENE) 11:50:26 437.445
PCSat 25 Apr 11:46:33 11:49:59 17° 70° (ENE) 11:53:24 145.827
VELOX 1 25 Apr 11:46:59 11:51:17 56° 102° (ESE) 11:55:35 145.980
BEESAT 2 25 Apr 11:56:13 11:58:22 14° 112° (ESE) 12:00:32 435.950
JUGNU 25 Apr 11:58:05 12:03:45 51° 159° (SSE) 12:09:26 437.505
BEESAT 3 25 Apr 11:59:46 12:03:34 68° 112° (ESE) 12:07:24 437.485
AO-85 25 Apr 12:03:21 12:05:29 13° 290° (WNW) 12:07:33 145.980
EO-79 25 Apr 12:05:27 12:08:58 25° 258° (WSW) 12:12:27 145.935-145.965
DUCHIFAT 1 25 Apr 12:09:31 12:13:09 28° 258° (WSW) 12:16:45 145.980
UKube-1 25 Apr 12:16:12 12:19:43 25° 102° (ESE) 12:23:14 .
50 SAT 25 Apr 12:27:04 12:30:28 59° 281° (WNW) 12:33:52 437.505
DX 1 25 Apr 12:44:38 12:48:57 74° 282° (WNW) 12:53:16 434.975-435.025
SPROUT 25 Apr 13:05:44 13:07:13 12° 282° (WNW) 13:08:41 437.525
Gurwin Techsat 1B 25 Apr 13:11:16 13:16:20 45° 78° (ENE) 13:21:22 435.225
SRMSAT 25 Apr 13:17:15 13:22:10 26° 162° (SSE) 13:27:06 437.500
BUGSAT 1 25 Apr 13:20:18 13:22:02 12° 258° (WSW) 13:23:46 437.445
Oscar 19 25 Apr 13:23:36 13:28:40 62° 258° (WSW) 13:33:43 437.125/150
PCSat 25 Apr 13:28:22 13:33:06 31° 250° (WSW) 13:37:50 145.827
BEESAT 2 25 Apr 13:33:10 13:35:51 18° 292° (WNW) 13:38:33 435.950
JUGNU 25 Apr 13:47:02 13:52:47 57° 339° (NNW) 13:58:33 437.505
UKube-1 25 Apr 13:53:29 13:55:28 13° 282° (WNW) 13:57:27 .
BEESAT 25 Apr 14:04:40 14:08:52 32° 103° (ESE) 14:13:06 436.000
MOZHAYETS 4 25 Apr 14:14:32 14:17:19 16° 102° (ESE) 14:20:05
YUBILEINY 25 Apr 14:26:13 14:32:12 20° 87° (E) 14:38:11 435.215
ITUPSAT 1 25 Apr 14:43:30 14:48:17 79° 281° (WNW) 14:53:06 437.325
ITAMSAT 1 25 Apr 14:45:39 14:50:46 57° 77° (ENE) 14:55:51 435.822/435.867
Gurwin Techsat 1B 25 Apr 14:54:35 14:55:58 11° 257° (WSW) 14:57:21 435.225
AO-7 25 Apr 15:04:10 15:12:27 72° 74° (ENE) 15:20:42 .
SRMSAT 25 Apr 15:05:35 15:11:32 68° 159° (SSE) 15:17:31 437.500
JUGNU 25 Apr 15:37:30 15:42:02 23° 343° (NNW) 15:46:35 437.505
BEESAT 25 Apr 15:44:13 15:46:22 13° 283° (WNW) 15:48:31 436.000
MOZHAYETS 4 25 Apr 15:50:27 15:54:11 25° 282° (WNW) 15:57:57
KKS-1 25 Apr 16:13:39 16:18:03 78° 102° (ESE) 16:22:28 437.445
YUBILEINY 25 Apr 16:20:12 16:28:35 50° 267° (W) 16:37:03 435.215
NO-84 25 Apr 16:32:37 16:36:31 33° 123° (ESE) 16:40:13 435.350 FM
CUBESAT XI-V 25 Apr 16:36:19 16:40:55 56° 282° (WNW) 16:45:30 437.345
DOVE 4 25 Apr 16:47:19 16:51:23 23° 78° (ENE) 16:55:29 437.250
STARS 25 Apr 16:49:54 16:54:14 85° 102° (ESE) 16:58:36 437.465
SO-50 25 Apr 16:53:15 16:57:44 67° 248° (WSW) 17:02:17 436.795
SRMSAT 25 Apr 16:55:06 17:00:47 44° 340° (NNW) 17:06:29 437.500
RS-15 25 Apr 16:55:27 17:06:25 45° 68° (ENE) 17:16:48 29.354- 29.394
XW-2B 25 Apr 16:56:39 16:57:28 11° 79° (ENE) 16:58:16 145.730 - 145.750
AO-7 25 Apr 17:01:10 17:04:45 13° 252° (WSW) 17:08:20 .
LilacSat-2 25 Apr 17:04:12 17:06:35 16° 79° (E) 17:08:57 437.200
Tancredo 1 25 Apr 17:04:35 17:07:25 33° 54° (NE) 17:10:15 437.200
XW-2C 25 Apr 17:06:50 17:09:17 17° 79° (E) 17:11:42 145.795 - 145.815
KAITUO 1B 25 Apr 17:09:07 17:10:48 13° 79° (E) 17:12:29 145.475/437.950
ISS 25 Apr 17:14:09 17:17:05 31° 54° (NE) 17:20:03 437.550
CUTE-I 25 Apr 17:21:51 17:26:31 30° 77° (ENE) 17:31:09 437.470
JUGNU 25 Apr 17:29:46 17:31:49 12° 352° (N) 17:33:53 437.505
XW-2F 25 Apr 17:32:24 17:35:56 41° 79° (E) 17:39:27 145.980 - 146.000
NUDT-PHONESAT 25 Apr 17:48:28 17:52:07 60° 79° (E) 17:55:43 437.300
HO-68 25 Apr 17:50:37 17:53:43 13° 75° (ENE) 17:56:48 435.675
NO-84 25 Apr 18:12:15 18:13:52 12° 301° (WNW) 18:15:27 435.350 FM
STRAND 1 25 Apr 18:12:52 18:16:26 19° 103° (ESE) 18:20:00 437.568
XW-2D 25 Apr 18:21:22 18:24:31 25° 259° (WSW) 18:27:38 145.860 - 145.880
XW-2A 25 Apr 18:23:25 18:25:30 15° 79° (E) 18:27:35 145.665 - 145.685
DOVE 4 25 Apr 18:24:48 18:28:45 22° 259° (W) 18:32:46 437.250
M-CUBED/EXP-1 PRIME 25 Apr 18:26:03 18:28:46 20° 104° (ESE) 18:31:21 437.505
XW-2B 25 Apr 18:28:31 18:31:23 21° 258° (WSW) 18:34:15 145.730 - 145.750
LilacSat-2 25 Apr 18:38:32 18:40:36 14° 258° (WSW) 18:42:39 437.200
XW-2C 25 Apr 18:41:17 18:43:12 14° 258° (WSW) 18:45:07 145.795 - 145.815
KAITUO 1B 25 Apr 18:42:06 18:44:33 17° 258° (WSW) 18:47:00 145.475/437.950
SRMSAT 25 Apr 18:46:13 18:50:20 19° 345° (NNW) 18:54:28 437.500
CUTE 1.7 + AOD 2 25 Apr 18:48:47 18:52:45 42° 79° (ENE) 18:56:42 437.475
CUTE-I 25 Apr 19:02:47 19:06:16 18° 257° (WSW) 19:09:45 437.470
RS-15 25 Apr 19:08:39 19:18:18 32° 249° (WSW) 19:27:40 29.354- 29.394
SEEDS 25 Apr 19:11:32 19:15:35 52° 78° (ENE) 19:19:36 437.485
UWE-3 25 Apr 19:29:08 19:33:07 31° 79° (E) 19:36:59 435.000/436.395/437.385
HO-68 25 Apr 19:34:03 19:41:04 62° 256° (WSW) 19:48:06 435.675
CUBEBUG 2 25 Apr 19:38:34 19:43:13 86° 78° (ENE) 19:47:41 437.445
STRAND 1 25 Apr 19:51:11 19:55:20 25° 282° (WNW) 19:59:29 437.568
XW-2A 25 Apr 19:56:56 19:57:59 11° 258° (WSW) 19:59:02 145.665 - 145.685
M-CUBED/EXP-1 PRIME 25 Apr 20:02:25 20:02:55 10° 288° (WNW) 20:03:24 437.505
AAUSAT CUBESAT 2 25 Apr 20:24:02 20:27:42 32° 258° (WSW) 20:31:22 437.432
ZACube-1 25 Apr 20:27:25 20:31:48 75° 259° (W) 20:36:02 437.345
AO-73 25 Apr 20:35:11 20:39:31 65° 259° (WSW) 20:43:42 145.935
SRMSAT 25 Apr 20:39:06 20:40:27 11° 354° (N) 20:41:47 437.500
OBJECT BX 25 Apr 20:48:48 20:51:14 17° 79° (ENE) 20:53:38 145.990 - 145.960
TIGRISAT 25 Apr 20:51:15 20:53:23 13° 103° (ESE) 20:55:33 435.000
Oscar 11 25 Apr 20:52:32 20:56:40 46° 258° (WSW) 21:00:46 .
PRISM 25 Apr 21:02:48 21:06:39 41° 102° (ESE) 21:10:31 437.425
UWE-3 25 Apr 21:08:09 21:09:15 11° 257° (WSW) 21:10:19 435.000/436.395/437.385
JUGNU 25 Apr 21:08:38 21:12:06 16° 13° (NNE) 21:15:33 437.505
UNISAT 6 25 Apr 21:10:21 21:14:08 28° 102° (ESE) 21:18:00 437.425
DELFI C3 25 Apr 21:20:05 21:24:01 88° 89° (E) 21:27:59 145.870
O/OREOS (USA 219) 25 Apr 21:25:42 21:29:52 37° 256° (WSW) 21:34:03 437.305
LO-87 25 Apr 21:57:19 21:59:27 15° 79° (ENE) 22:01:35 145.935 - 145.965
FO-29 25 Apr 22:00:53 22:06:30 87° 100° (E) 22:12:55 435.910
ESTCUBE 1 25 Apr 22:06:54 22:07:43 10° 78° (ENE) 22:08:33 437.505/2401.250
OBJECT BX 25 Apr 22:23:06 22:24:38 12° 258° (WSW) 22:26:10 145.990 - 145.960
TIGRISAT 25 Apr 22:26:10 22:29:46 25° 281° (W) 22:33:28 435.000
SRMSAT 25 Apr 22:29:37 22:30:51 11° 5° (N) 22:32:05 437.500
AO-85 25 Apr 22:32:40 22:36:53 54° 69° (ENE) 22:41:28 145.980
AIST 2D 25 Apr 22:34:24 22:37:31 29° 101° (E) 22:40:39 435.315
EO-79 25 Apr 22:36:55 22:39:20 15° 102° (ESE) 22:41:46 145.935-145.965
DUCHIFAT 1 25 Apr 22:40:59 22:42:55 13° 102° (ESE) 22:44:51 145.980
UNISAT 6 25 Apr 22:48:58 22:50:36 12° 281° (WNW) 22:52:15 437.425
JUGNU 25 Apr 22:56:16 23:01:39 34° 19° (NNE) 23:07:01 437.505
POLYITAN 1 25 Apr 23:14:01 23:18:07 55° 102° (ESE) 23:22:17 437.675
QB50P2 25 Apr 23:20:28 23:24:40 79° 102° (ESE) 23:28:54 145.880/145.840
LO-87 25 Apr 23:30:38 23:32:38 14° 259° (WSW) 23:34:37 145.935 - 145.965
SPROUT 25 Apr 23:34:50 23:38:44 34° 78° (ENE) 23:42:36 437.525
ESTCUBE 1 25 Apr 23:40:13 23:44:15 33° 258° (WSW) 23:48:15 437.505/2401.250
NANOSAT C BR1 25 Apr 23:43:45 23:47:51 58° 281° (WNW) 23:52:00 145.865
BUGSAT 1 25 Apr 23:46:22 23:49:45 26° 102° (ESE) 23:53:09 437.445
BEESAT 2 25 Apr 23:49:00 23:51:26 16° 68° (ENE) 23:53:52 435.950
BEESAT 3 25 Apr 23:51:29 23:55:23 69° 68° (ENE) 23:59:15 437.485
VELOX 1 25 Apr 23:58:18 00:02:46 84° 76° (ENE) 00:07:12 145.980
50 SAT 26 Apr 00:11:21 00:14:46 67° 79° (ENE) 00:18:12 437.505
EO-79 26 Apr 00:11:42 00:14:49 20° 282° (WNW) 00:17:58 145.935-145.965
